TYVAK-0172 (46267 NORAD) Tracking and Keplerian Element Data

This shows tracking and keplerian element data for the satellite.

Feedback or suggestion? Click here.




ElementValue
Catalog46267
NameTYVAK-0172
Epoch Orbit1361
Epoch Day335.59214252
Epoch Year2020
RAAN158.7894
Inclination97.8695
Eccentricity0.0005824
Argument of Perigee200.7972
Mean Anonmoly159.3009
Mean Motion14.88240842
Decay Rate1.117E-05
L11 46267U 20059C 20335.59214252 .00001117 00000-0 12696-3 0 9991
L22 46267 97.8695 158.7894 0005824 200.7972 159.3009 14.88240842 13618

Live tracking and technical data element details for TYVAK-0172 (NORAD 46267). TYVAK-0172 can be tracked NOW for your location showing map with azimuth and elevation plus other details from your city location.

Track the satellite on the map from your city or location and see movement details for azimuth, elevation, latitude, longitude, range, height, and movement on the map or in text.







IsCatalogInMostPopularTable: catalog: 46267, numindb: 15
Update: records affected: 1



GetName: 46267 TYVAK-0172

Hit Count: updated at: Wed, 02 Dec 2020 05:39:52 GMT